1518775200.09,45744,10.56,73288.3,-4.39,-7.65,-7.43,0,*5C
1518775201.34,45745,10.56,73288.0,-4.41,-7.69,-7.43,0,*5E
1518775202.59,45746,10.56,73290.8,-4.41,-7.65,-7.43,0,*51
1518775203.8,45747,10.56,73290.0,-4.41,-7.77,-7.53,0,*52
1518775205.04,45748,10.56,73288.3,-4.39,-7.53,-7.39,0,*58
1518775206.26,45749,10.56,73286.8,-4.41,-7.83,-7.57,0,*53
1518775207.51,45750,10.63,73292.8,-4.41,-7.65,-7.43,0,*56
1518775208.76,45751,10.56,73288.5,-4.41,-7.43,-7.31,0,*56
1518775209.97,45752,10.56,73290.8,-4.41,-7.53,-7.27,0,*53
1518775211.22,45753,10.63,73294.0,-4.41,-7.43,-7.39,0,*5C
1518775212.45,45754,10.56,73288.3,-4.41,-7.27,-7.05,0,*56
1518775213.67,45755,10.56,73290.3,-4.41,-7.43,-7.19,0,*58
1518775214.93,45756,10.56,73294.5,-4.39,-7.39,-7.27,0,*54
1518775216.15,45757,10.56,73294.3,-4.41,-7.43,-7.15,0,*56
1518775217.38,45758,10.56,73288.8,-4.41,-7.43,-7.19,0,*55
1518775218.62,45759,10.56,73294.3,-4.39,-7.43,-7.19,0,*5B
1518775219.83,45760,10.56,73288.8,-4.41,-7.39,-7.15,0,*5F
1518775221.07,45761,10.56,73292.8,-4.39,-7.31,-7.15,0,*59
1518775222.34,45762,10.56,73288.3,-4.39,-7.57,-7.43,0,*59
1518775223.58,45763,10.56,73292.5,-4.39,-7.83,-7.69,0,*59
1518775224.85,45764,10.56,73290.8,-4.39,-7.57,-7.43,0,*5F
1518775226.1,45765,10.63,73292.8,-4.41,-7.57,-7.31,0,*54
1518775227.32,45766,10.56,73288.3,-4.41,-7.43,-7.19,0,*58
1518775228.59,45767,10.56,73294.5,-4.39,-7.57,-7.31,0,*59
1518775229.86,45768,10.63,73292.5,-4.39,-7.65,-7.43,0,*52
1518775231.06,45769,10.56,73290.8,-4.41,-7.87,-7.83,0,*5C
1518775232.33,45770,10.56,73292.8,-4.39,-7.57,-7.43,0,*5A
1518775233.6,45771,10.56,73292.5,-4.39,-7.57,-7.31,0,*5E
1518775234.82,45772,10.56,73292.3,-4.41,-7.53,-7.39,0,*5E
1518775236.04,45773,10.56,73292.0,-4.41,-7.43,-7.19,0,*5C
1518775237.28,45774,10.56,73294.3,-4.39,-7.53,-7.27,0,*58
1518775238.52,45775,10.56,73290.8,-4.41,-7.65,-7.43,0,*51
1518775239.76,45776,10.56,73292.5,-4.39,-7.65,-7.53,0,*5C
1518775241.0,45777,10.56,73294.5,-4.39,-7.53,-7.31,0,*5C
1518775242.27,45778,10.56,73290.3,-4.39,-7.65,-7.43,0,*53
1518775243.53,45779,10.56,73288.0,-4.39,-7.77,-7.57,0,*54
1518775244.77,45780,10.56,73292.8,-4.39,-7.87,-7.65,0,*5C
1518775246.01,45781,10.56,73290.5,-4.41,-7.69,-7.57,0,*53
1518775247.23,45782,10.56,73294.0,-4.41,-7.53,-7.27,0,*5E
1518775248.45,45783,10.56,73294.8,-4.41,-7.43,-7.19,0,*53
1518775249.68,45784,10.56,73292.8,-4.41,-7.43,-7.19,0,*54
1518775250.92,45785,10.56,73292.0,-4.39,-7.43,-7.15,0,*56
1518775252.16,45786,10.56,73292.0,-4.41,-7.65,-7.39,0,*50
1518775253.41,45787,10.56,73292.0,-4.39,-7.57,-7.19,0,*5D
1518775254.62,45788,10.56,73288.8,-4.39,-7.53,-7.19,0,*56
1518775255.86,45789,10.56,73292.5,-4.39,-7.31,-7.15,0,*5F
1518775257.09,45790,10.63,73294.3,-4.39,-7.39,-7.19,0,*53
1518775258.31,45791,10.56,73288.0,-4.41,-7.53,-7.39,0,*53
1518775259.58,45792,10.56,73288.5,-4.39,-7.57,-7.43,0,*56
1518775260.85,45793,10.63,73292.8,-4.39,-7.57,-7.39,0,*5A
1518775262.09,45794,10.56,73290.8,-4.39,-7.53,-7.27,0,*56
1518775263.33,45795,10.56,73288.8,-4.39,-7.53,-7.31,0,*50
1518775264.59,45796,10.63,73296.3,-4.39,-7.43,-7.31,0,*52
1518775265.83,45797,10.56,73288.3,-4.39,-7.53,-7.43,0,*57
1518775267.1,45798,10.56,73290.5,-4.39,-7.57,-7.39,0,*51
1518775268.35,45799,10.56,73290.5,-4.41,-7.57,-7.39,0,*5F
1518775269.62,45800,10.56,73290.5,-4.39,-7.57,-7.39,0,*5F
1518775270.89,45801,10.56,73288.0,-4.39,-7.57,-7.43,0,*53
1518775272.13,45802,10.56,73290.0,-4.39,-7.53,-7.39,0,*59
1518775273.37,45803,10.56,73288.3,-4.41,-7.65,-7.39,0,*52
1518775274.63,45804,10.56,73292.3,-4.39,-7.39,-7.27,0,*5C
1518775275.85,45805,10.56,73290.8,-4.41,-7.53,-7.31,0,*59
1518775277.09,45806,10.56,73290.0,-4.39,-7.53,-7.39,0,*5D
1518775278.3,45807,10.56,73288.3,-4.41,-7.69,-7.53,0,*56
1518775279.54,45808,10.56,73290.5,-4.39,-7.83,-7.57,0,*56
1518775280.78,45809,10.56,73288.3,-4.39,-7.53,-7.39,0,*52
1518775282.03,45810,10.56,73292.3,-4.41,-7.43,-7.27,0,*5B
1518775283.28,45811,10.56,73288.5,-4.41,-7.65,-7.43,0,*5C
1518775284.52,45812,10.56,73292.3,-4.41,-7.77,-7.57,0,*59
1518775285.76,45813,10.56,73290.5,-4.41,-7.69,-7.57,0,*57
1518775286.98,45814,10.56,73290.5,-4.41,-7.83,-7.65,0,*55
1518775288.23,45815,10.56,73288.8,-4.41,-7.69,-7.43,0,*54
1518775289.48,45816,10.63,73292.5,-4.41,-7.57,-7.39,0,*57
1518775290.75,45817,10.56,73290.0,-4.39,-7.57,-7.31,0,*51
1518775291.96,45818,10.56,73288.5,-4.41,-7.53,-7.39,0,*5D
1518775293.21,45819,10.56,73292.3,-4.41,-7.57,-7.31,0,*50
1518775294.43,45820,10.56,73288.5,-4.41,-7.31,-7.15,0,*5C
1518775295.67,45821,10.56,73290.3,-4.41,-7.31,-7.01,0,*58
1518775296.9,45822,10.56,73288.0,-4.39,-7.39,-7.19,0,*55
1518775298.14,45823,10.56,73290.8,-4.39,-7.39,-7.19,0,*54
1518775299.38,45824,10.63,73294.0,-4.39,-7.53,-7.27,0,*52
1518775300.65,45825,10.56,73288.8,-4.39,-7.57,-7.39,0,*58
1518775301.87,45826,10.56,73290.3,-4.41,-7.43,-7.19,0,*53
1518775303.13,45827,10.56,73286.5,-4.39,-7.43,-7.27,0,*50
1518775304.35,45828,10.56,73294.0,-4.41,-7.31,-7.19,0,*58
1518775305.57,45829,10.56,73288.8,-4.41,-7.57,-7.53,0,*57
1518775306.81,45830,10.56,73292.0,-4.39,-7.53,-7.31,0,*50
1518775308.04,45831,10.56,73292.0,-4.39,-7.39,-7.19,0,*57
1518775309.28,45832,10.56,73292.5,-4.39,-7.31,-7.15,0,*50
1518775310.53,45833,10.56,73292.3,-4.41,-7.57,-7.39,0,*50
1518775311.74,45834,10.56,73290.8,-4.41,-7.77,-7.53,0,*59
1518775312.95,45835,10.63,73292.3,-4.41,-7.69,-7.53,0,*57
1518775314.21,45836,10.63,73292.0,-4.41,-7.57,-7.43,0,*58
1518775315.42,45837,10.56,73288.5,-4.41,-7.53,-7.39,0,*50
1518775316.66,45838,10.56,73292.0,-4.39,-7.27,-7.15,0,*5D
1518775317.9,45839,10.56,73288.8,-4.39,-7.19,-7.01,0,*54
1518775319.14,45840,10.56,73288.5,-4.39,-7.31,-7.15,0,*55
1518775320.38,45841,10.56,73288.5,-4.39,-7.53,-7.39,0,*5E
1518775321.62,45842,10.56,73294.3,-4.41,-7.43,-7.27,0,*5C
1518775322.84,45843,10.56,73288.3,-4.41,-7.31,-7.19,0,*55
1518775324.06,45844,10.56,73290.5,-4.41,-7.39,-7.19,0,*5A
1518775325.31,45845,10.56,73288.3,-4.39,-7.39,-7.05,0,*59
1518775326.52,45846,10.56,73288.0,-4.41,-7.53,-7.27,0,*59
1518775327.79,45847,10.56,73288.8,-4.39,-7.43,-7.31,0,*51
1518775329.03,45848,10.63,73294.8,-4.39,-7.57,-7.53,0,*5F
1518775330.25,45849,10.56,73290.8,-4.41,-7.53,-7.39,0,*59
1518775331.49,45850,10.63,73294.5,-4.41,-7.43,-7.27,0,*5F
1518775332.71,45851,10.56,73288.0,-4.41,-7.53,-7.39,0,*50
1518775333.97,45852,10.63,73292.0,-4.39,-7.43,-7.31,0,*55
1518775335.19,45853,10.56,73290.8,-4.41,-7.53,-7.27,0,*5D
1518775336.43,45854,10.56,73290.0,-4.41,-7.31,-7.05,0,*5E
1518775337.64,45855,10.56,73288.3,-4.37,-7.23,-7.01,0,*59
1518775338.88,45856,10.56,73290.5,-4.39,-7.31,-7.19,0,*5E
1518775340.11,45857,10.56,73288.0,-4.39,-7.39,-7.19,0,*57
1518775341.33,45858,10.56,73288.5,-4.41,-7.19,-7.05,0,*58
1518775342.57,45859,10.56,73288.0,-4.39,-7.31,-7.15,0,*5D
1518775343.83,45860,10.56,73290.0,-4.39,-7.39,-7.27,0,*5E
1518775345.06,45861,10.56,73284.8,-4.39,-7.57,-7.53,0,*54
1518775346.33,45862,10.56,73290.3,-4.39,-7.43,-7.31,0,*56
1518775347.55,45863,10.56,73284.5,-4.41,-7.53,-7.43,0,*5C
1518775348.79,45864,10.56,73290.5,-4.39,-7.31,-7.15,0,*53
1518775350.03,45865,10.56,73290.0,-4.39,-7.27,-7.15,0,*55
1518775351.29,45866,10.56,73288.0,-4.39,-7.27,-7.01,0,*53
1518775352.56,45867,10.56,73288.3,-4.39,-7.57,-7.43,0,*53
1518775353.83,45868,10.56,73288.0,-4.39,-7.43,-7.27,0,*5B
1518775355.04,45869,10.56,73288.3,-4.41,-7.19,-7.05,0,*5A
1518775356.3,45870,10.63,73292.0,-4.39,-7.39,-7.27,0,*5F
1518775357.56,45871,10.56,73290.8,-4.39,-7.39,-7.27,0,*5E
1518775358.82,45872,10.56,73288.0,-4.39,-7.27,-7.01,0,*56
1518775360.06,45873,10.56,73290.5,-4.39,-7.53,-7.43,0,*52
1518775361.32,45874,10.63,73288.8,-4.39,-7.43,-7.39,0,*59
1518775362.59,45875,10.56,73284.5,-4.39,-7.43,-7.31,0,*50
1518775363.81,45876,10.63,73290.3,-4.39,-7.19,-7.15,0,*5A
1518775365.07,45877,10.56,73286.8,-4.39,-7.43,-7.31,0,*52
1518775366.31,45878,10.56,73290.8,-4.39,-7.27,-7.15,0,*59
1518775367.56,45879,10.56,73286.5,-4.41,-7.57,-7.39,0,*5E
1518775368.8,45880,10.56,73284.5,-4.39,-7.53,-7.39,0,*53
1518775370.04,45881,10.56,73284.3,-4.41,-7.43,-7.31,0,*54
1518775371.28,45882,10.56,73284.5,-4.39,-7.53,-7.31,0,*59
1518775372.5,45883,10.56,73286.5,-4.41,-7.53,-7.39,0,*5F
1518775373.71,45884,10.56,73288.3,-4.41,-7.53,-7.39,0,*58
1518775374.93,45885,10.63,73292.0,-4.41,-7.53,-7.31,0,*51
1518775376.15,45886,10.63,73288.8,-4.41,-7.53,-7.39,0,*5A
1518775377.4,45887,10.56,73288.8,-4.41,-7.43,-7.31,0,*52
1518775378.63,45888,10.63,73288.3,-4.39,-7.53,-7.39,0,*5B
1518775379.89,45889,10.56,73286.5,-4.41,-7.57,-7.43,0,*5C
1518775381.13,45890,10.56,73288.5,-4.41,-7.65,-7.39,0,*58
1518775382.38,45891,10.56,73286.3,-4.41,-7.57,-7.31,0,*50
1518775383.63,45892,10.56,73288.8,-4.41,-7.43,-7.31,0,*56
1518775384.84,45893,10.56,73286.0,-4.41,-7.39,-7.19,0,*50
1518775386.08,45894,10.56,73284.8,-4.41,-7.43,-7.31,0,*50
1518775387.33,45895,10.56,73294.3,-4.41,-7.43,-7.27,0,*56
1518775388.57,45896,10.63,73298.0,-4.41,-7.99,-7.95,0,*5B
1518775389.81,45897,10.56,73294.0,-4.41,-7.77,-7.65,0,*55
1518775391.09,45898,10.56,73288.5,-4.43,-7.73,-7.57,0,*5D
1518775392.33,45899,10.56,73284.8,-4.43,-7.87,-7.69,0,*5A
1518775393.58,45900,10.56,73286.0,-4.45,-7.73,-7.61,0,*5E
1518775394.83,45901,10.56,73286.0,-4.45,-7.65,-7.61,0,*58
1518775396.04,45902,10.56,73286.5,-4.45,-7.61,-7.53,0,*5E
1518775397.29,45903,10.63,73290.3,-4.45,-7.61,-7.39,0,*53
1518775398.56,45904,10.56,73286.5,-4.43,-7.57,-7.35,0,*5B
1518775399.8,45905,10.56,73286.8,-4.43,-7.49,-7.31,0,*51
1518775401.05,45906,10.56,73284.3,-4.45,-7.73,-7.61,0,*58
1518775402.27,45907,10.56,73282.3,-4.45,-7.65,-7.53,0,*5F
1518775403.54,45908,10.56,73284.5,-4.43,-7.69,-7.57,0,*5E
1518775404.78,45909,10.56,73286.5,-4.45,-7.77,-7.61,0,*53
1518775406.0,45910,10.56,73290.3,-4.45,-7.65,-7.53,0,*59
1518775407.24,45911,10.56,73292.5,-4.45,-7.91,-7.65,0,*56
1518775408.46,45912,10.56,73290.3,-4.45,-7.53,-7.39,0,*52
1518775409.7,45913,10.56,73290.5,-4.45,-7.77,-7.73,0,*5B
1518775410.95,45914,10.63,73290.8,-4.45,-8.07,-7.91,0,*58
1518775412.21,45915,10.56,73288.0,-4.47,-7.91,-7.91,0,*5B
1518775413.47,45916,10.56,73288.8,-4.47,-8.07,-8.03,0,*5C
1518775414.71,45917,10.63,73292.8,-4.47,-7.87,-7.65,0,*55
1518775415.95,45918,10.63,73292.5,-4.49,-7.69,-7.65,0,*54
1518775417.2,45919,10.56,73290.5,-4.49,-7.57,-7.39,0,*51
1518775418.42,45920,10.56,73290.5,-4.49,-7.57,-7.53,0,*57
1518775419.63,45921,10.56,73292.0,-4.49,-7.65,-7.53,0,*57
1518775420.87,45922,10.56,73286.8,-4.47,-7.61,-7.53,0,*5E
1518775422.11,45923,10.56,73288.3,-4.49,-7.65,-7.57,0,*51
1518775423.35,45924,10.56,73286.3,-4.49,-7.65,-7.57,0,*56
1518775424.57,45925,10.63,73292.0,-4.49,-7.53,-7.39,0,*5A
1518775425.81,45926,10.56,73288.3,-4.49,-7.77,-7.65,0,*56
1518775427.05,45927,10.56,73286.5,-4.49,-7.69,-7.57,0,*59
1518775428.29,45928,10.56,73284.3,-4.49,-7.77,-7.65,0,*58
1518775429.57,45929,10.63,73290.0,-4.47,-7.73,-7.61,0,*57
1518775430.81,45930,10.63,73292.5,-4.49,-7.43,-7.31,0,*57
1518775432.03,45931,10.56,73292.3,-4.49,-7.53,-7.39,0,*5F
1518775433.27,45932,10.56,73296.3,-4.49,-8.07,-7.95,0,*54
1518775434.54,45933,10.56,73296.3,-4.51,-8.11,-8.11,0,*58
1518775435.8,45934,10.56,73290.5,-4.55,-8.11,-8.03,0,*58
1518775437.06,45935,10.56,73294.3,-4.55,-8.03,-7.99,0,*56
1518775438.32,45936,10.63,73294.8,-4.51,-7.91,-7.77,0,*55
1518775439.59,45937,10.56,73292.0,-4.51,-7.65,-7.65,0,*5C
1518775440.86,45938,10.56,73292.3,-4.51,-7.65,-7.57,0,*52
1518775442.1,45939,10.63,73294.5,-4.55,-7.83,-7.69,0,*52
1518775443.37,45940,10.63,73294.3,-4.55,-7.57,-7.43,0,*5D
1518775444.65,45941,10.56,73288.3,-4.55,-7.57,-7.43,0,*5C
1518775445.91,45942,10.56,73290.0,-4.55,-7.73,-7.69,0,*51
1518775447.18,45943,10.63,73290.5,-4.55,-7.65,-7.57,0,*5A
1518775448.43,45944,10.56,73284.8,-4.57,-7.61,-7.57,0,*5B
1518775449.68,45945,10.56,73284.5,-4.57,-7.57,-7.43,0,*5A
1518775450.92,45946,10.56,73284.3,-4.57,-7.61,-7.57,0,*59
1518775452.16,45947,10.56,73288.0,-4.57,-7.61,-7.35,0,*5C
1518775453.43,45948,10.63,73294.0,-4.55,-7.69,-7.57,0,*5D
1518775454.7,45949,10.63,73296.0,-4.55,-7.57,-7.35,0,*55
1518775455.93,45950,10.56,73290.3,-4.55,-7.87,-7.69,0,*59
1518775457.21,45951,10.63,73292.5,-4.55,-7.73,-7.57,0,*5E
1518775458.47,45952,10.56,73290.5,-4.55,-7.43,-7.35,0,*5A
1518775459.71,45953,10.63,73294.5,-4.55,-7.49,-7.31,0,*55
1518775460.95,45954,10.56,73292.3,-4.55,-7.83,-7.73,0,*52
1518775462.17,45955,10.56,73292.3,-4.57,-8.17,-8.11,0,*58
1518775463.38,45956,10.56,73290.3,-4.57,-8.17,-8.03,0,*58
1518775464.62,45957,10.56,73290.8,-4.59,-7.87,-7.73,0,*59
1518775465.86,45958,10.56,73284.8,-4.57,-7.69,-7.61,0,*5B
1518775467.08,45959,10.56,73288.5,-4.57,-7.83,-7.69,0,*56
1518775468.31,45960,10.56,73290.0,-4.59,-7.61,-7.53,0,*57
1518775469.53,45961,10.63,73296.8,-4.57,-7.49,-7.39,0,*5E
1518775470.74,45962,10.63,73294.8,-4.59,-7.49,-7.49,0,*54
1518775471.97,45963,10.56,73292.5,-4.59,-7.61,-7.53,0,*54
1518775473.21,45964,10.63,73292.8,-4.59,-7.87,-7.73,0,*59
1518775474.46,45965,10.63,73296.5,-4.57,-7.57,-7.35,0,*59
1518775475.72,45966,10.56,73294.5,-4.59,-7.39,-7.27,0,*5F
1518775476.96,45967,10.56,73294.0,-4.59,-7.49,-7.35,0,*5A
1518775478.2,45968,10.63,73296.8,-4.59,-7.61,-7.49,0,*54
1518775479.47,45969,10.56,73292.8,-4.59,-7.73,-7.65,0,*58
1518775480.72,45970,10.63,73292.3,-4.57,-7.57,-7.35,0,*5D
1518775481.95,45971,10.56,73290.8,-4.59,-7.49,-7.35,0,*5D
1518775483.19,45972,10.56,73288.3,-4.59,-7.27,-7.15,0,*54
1518775484.43,45973,10.56,73288.8,-4.59,-7.27,-7.15,0,*55
1518775485.64,45974,10.63,73292.5,-4.57,-7.31,-7.19,0,*57
1518775486.86,45975,10.56,73290.3,-4.59,-7.23,-7.11,0,*53
1518775488.11,45976,10.56,73294.0,-4.57,-7.43,-7.31,0,*5A
1518775489.33,45977,10.56,73290.3,-4.57,-7.35,-7.23,0,*59
1518775490.55,45978,10.56,73292.3,-4.57,-7.35,-7.19,0,*5F
1518775491.78,45979,10.56,73288.8,-4.59,-7.49,-7.39,0,*59
1518775493.0,45980,10.56,73288.8,-4.57,-7.65,-7.49,0,*58
1518775494.19,45981,10.56,73290.3,-4.57,-7.23,-7.19,0,*5E
1518775495.4,45982,10.63,73292.8,-4.57,-7.49,-7.27,0,*5C
1518775496.64,45983,10.56,73288.5,-4.59,-7.61,-7.53,0,*5A
1518775497.89,45984,10.56,73288.3,-4.57,-7.57,-7.43,0,*57
1518775499.16,45985,10.56,73290.8,-4.59,-7.73,-7.73,0,*5D
1518775500.38,45986,10.63,73290.0,-4.57,-7.31,-7.19,0,*5A
1518775501.62,45987,10.63,73292.5,-4.59,-7.35,-7.23,0,*58
1518775502.87,45988,10.56,73292.3,-4.57,-7.57,-7.43,0,*5B
1518775504.09,45989,10.56,73290.3,-4.57,-7.35,-7.23,0,*58
1518775505.33,45990,10.56,73292.0,-4.59,-7.39,-7.23,0,*52
1518775506.53,45991,10.56,73294.8,-4.57,-7.23,-7.11,0,*57
1518775507.72,45992,10.56,73292.5,-4.57,-7.23,-7.19,0,*5C
1518775508.96,45993,10.56,73294.5,-4.57,-7.31,-7.31,0,*54
1518775510.18,45994,10.56,73292.5,-4.57,-7.49,-7.43,0,*59
1518775511.42,45995,10.56,73294.8,-4.59,-7.27,-7.23,0,*58
1518775512.68,45996,10.56,73294.8,-4.59,-7.35,-7.35,0,*5F
1518775513.92,45997,10.56,73292.8,-4.59,-7.49,-7.35,0,*55
1518775515.13,45998,10.63,73292.8,-4.59,-7.53,-7.49,0,*5A
1518775516.35,45999,10.56,73292.3,-4.57,-7.49,-7.43,0,*54
1518775517.54,46000,10.56,73292.0,-4.57,-7.23,-7.19,0,*5D
1518775518.76,46001,10.63,73292.8,-4.57,-7.31,-7.23,0,*56
1518775519.98,46002,10.56,73292.0,-4.57,-7.35,-7.23,0,*51
1518775521.19,46003,10.56,73288.5,-4.57,-7.49,-7.35,0,*5C
1518775522.47,46004,10.63,73294.5,-4.59,-7.73,-7.61,0,*5D
1518775523.7,46005,10.56,73288.8,-4.59,-7.53,-7.39,0,*53
1518775524.94,46006,10.56,73288.8,-4.59,-7.61,-7.53,0,*5D
1518775526.21,46007,10.56,73294.8,-4.59,-7.73,-7.65,0,*5A
1518775527.45,46008,10.56,73292.0,-4.59,-7.49,-7.35,0,*59
1518775528.69,46009,10.63,73294.0,-4.57,-7.69,-7.61,0,*55
1518775529.93,46010,10.56,73288.5,-4.59,-7.65,-7.53,0,*5E
1518775531.17,46011,10.56,73290.3,-4.59,-7.53,-7.35,0,*5A
1518775532.43,46012,10.56,73294.0,-4.59,-7.35,-7.27,0,*5A
1518775533.65,46013,10.56,73292.8,-4.59,-7.53,-7.49,0,*53
1518775534.91,46014,10.56,73288.8,-4.59,-7.65,-7.61,0,*5B
1518775536.15,46015,10.56,73288.5,-4.59,-7.49,-7.35,0,*55
1518775537.39,46016,10.63,73292.3,-4.59,-7.49,-7.35,0,*56
1518775538.63,46017,10.56,73294.0,-4.59,-7.39,-7.23,0,*57
1518775539.87,46018,10.63,73294.3,-4.57,-7.43,-7.31,0,*58
1518775541.14,46019,10.56,73290.0,-4.59,-7.73,-7.61,0,*51
1518775542.41,46020,10.56,73290.5,-4.59,-7.35,-7.27,0,*5B
1518775543.63,46021,10.63,73292.3,-4.61,-7.35,-7.23,0,*55
1518775544.87,46022,10.56,73288.5,-4.59,-7.27,-7.15,0,*5B
1518775546.09,46023,10.63,73294.5,-4.59,-7.23,-7.11,0,*5A
1518775547.28,46024,10.63,73294.5,-4.57,-7.23,-7.19,0,*5B
1518775548.54,46025,10.56,73290.3,-4.59,-7.39,-7.35,0,*51
1518775549.81,46026,10.56,73286.8,-4.59,-7.35,-7.27,0,*5D
1518775551.03,46027,10.56,73288.0,-4.59,-7.23,-7.11,0,*5E
1518775552.29,46028,10.56,73290.0,-4.59,-7.27,-7.27,0,*50
1518775553.53,46029,10.56,73290.5,-4.59,-7.35,-7.23,0,*56
1518775554.77,46030,10.56,73288.5,-4.59,-7.23,-7.05,0,*5D
1518775556.03,46031,10.63,73288.8,-4.59,-7.61,-7.39,0,*55
1518775557.27,46032,10.56,73288.5,-4.59,-7.49,-7.27,0,*53
1518775558.51,46033,10.63,73292.3,-4.59,-7.39,-7.23,0,*51
1518775559.74,46034,10.56,73290.3,-4.59,-7.49,-7.35,0,*56
1518775560.96,46035,10.56,73290.5,-4.59,-7.23,-7.15,0,*59
1518775562.22,46036,10.63,73292.0,-4.59,-7.39,-7.27,0,*50
1518775563.43,46037,10.56,73288.0,-4.57,-7.49,-7.35,0,*5B
1518775564.7,46038,10.56,73290.5,-4.59,-7.27,-7.27,0,*51
1518775565.93,46039,10.56,73290.5,-4.59,-7.49,-7.27,0,*58
1518775567.15,46040,10.63,73292.8,-4.59,-7.53,-7.49,0,*55
1518775568.42,46041,10.56,73290.8,-4.59,-7.65,-7.61,0,*5B
1518775569.65,46042,10.63,73290.8,-4.59,-7.53,-7.35,0,*5C
1518775570.9,46043,10.63,73290.8,-4.59,-7.35,-7.23,0,*5A
1518775572.14,46044,10.56,73290.3,-4.59,-7.27,-7.23,0,*5E
1518775573.37,46045,10.56,73284.5,-4.59,-7.61,-7.53,0,*5A
1518775574.62,46046,10.56,73288.5,-4.59,-7.61,-7.49,0,*52
1518775575.86,46047,10.56,73286.0,-4.59,-7.61,-7.49,0,*53
1518775577.07,46048,10.63,73288.0,-4.61,-7.49,-7.27,0,*55
1518775578.31,46049,10.56,73284.3,-4.59,-7.27,-7.15,0,*56
1518775579.55,46050,10.56,73286.0,-4.59,-7.39,-7.23,0,*54
1518775580.81,46051,10.56,73288.8,-4.59,-7.65,-7.65,0,*5E
1518775582.08,46052,10.56,73290.8,-4.59,-7.65,-7.61,0,*59
1518775583.33,46053,10.56,73290.3,-4.59,-7.35,-7.23,0,*5B
1518775584.56,46054,10.56,73288.0,-4.59,-7.49,-7.39,0,*5C
1518775585.8,46055,10.63,73292.3,-4.59,-7.27,-7.15,0,*5B
1518775587.04,46056,10.63,73290.3,-4.59,-7.39,-7.23,0,*52
1518775588.28,46057,10.63,73292.0,-4.59,-7.27,-7.15,0,*59
1518775589.52,46058,10.56,73290.5,-4.59,-7.35,-7.23,0,*50
1518775590.76,46059,10.56,73290.0,-4.59,-7.35,-7.23,0,*51
1518775592.01,46060,10.56,73288.0,-4.57,-7.57,-7.61,0,*57
1518775593.23,46061,10.63,73288.3,-4.59,-7.53,-7.49,0,*56
1518775594.46,46062,10.56,73290.3,-4.59,-7.49,-7.35,0,*55
1518775595.7,46063,10.63,73288.8,-4.59,-7.49,-7.39,0,*58
1518775596.93,46064,10.56,73290.0,-4.59,-7.49,-7.39,0,*5F
1518775598.19,46065,10.56,73290.8,-4.59,-7.39,-7.27,0,*56
1518775599.45,46066,10.63,73290.8,-4.59,-7.27,-7.05,0,*5A
1518775600.67,46067,10.56,73288.3,-4.59,-7.23,-7.11,0,*5A
1518775601.91,46068,10.63,73288.8,-4.59,-7.61,-7.53,0,*55
1518775603.14,46069,10.63,73288.8,-4.59,-7.49,-7.35,0,*5E
1518775604.36,46070,10.63,73288.0,-4.57,-7.35,-7.19,0,*5D
1518775605.62,46071,10.56,73290.0,-4.59,-7.35,-7.27,0,*5F
1518775606.87,46072,10.56,73288.3,-4.57,-7.35,-7.31,0,*55
1518775608.11,46073,10.56,73286.8,-4.59,-7.53,-7.39,0,*52
1518775609.36,46074,10.63,73290.8,-4.59,-7.39,-7.27,0,*56
1518775610.58,46075,10.56,73288.0,-4.57,-7.35,-7.23,0,*51
1518775611.81,46076,10.63,73290.5,-4.59,-7.15,-7.11,0,*5F
1518775613.02,46077,10.56,73290.0,-4.57,-7.11,-7.05,0,*51
1518775614.23,46078,10.56,73290.3,-4.57,-7.11,-7.05,0,*5E
1518775615.47,46079,10.56,73288.3,-4.57,-7.39,-7.35,0,*56
1518775616.69,46080,10.56,73290.5,-4.57,-7.31,-7.11,0,*5E
1518775617.95,46081,10.63,73292.3,-4.59,-7.27,-7.27,0,*53
1518775619.15,46082,10.63,73294.3,-4.57,-7.23,-7.23,0,*5E
1518775620.39,46083,10.56,73290.8,-4.57,-7.35,-7.31,0,*5B
1518775621.64,46084,10.63,73294.8,-4.57,-7.57,-7.43,0,*5D
1518775622.89,46085,10.56,73290.5,-4.59,-7.27,-7.05,0,*57
1518775624.13,46086,10.63,73290.5,-4.55,-7.11,-7.05,0,*5D
1518775625.37,46087,10.63,73290.3,-4.57,-7.01,-7.01,0,*5B
1518775626.64,46088,10.56,73290.5,-4.55,-7.43,-7.43,0,*56
1518775627.88,46089,10.63,73290.8,-4.57,-7.35,-7.31,0,*51
1518775629.1,46090,10.63,73294.0,-4.57,-7.31,-7.19,0,*57
1518775630.31,46091,10.56,73288.8,-4.57,-7.11,-7.01,0,*5D
1518775631.54,46092,10.63,73294.0,-4.55,-7.19,-7.11,0,*55
1518775632.73,46093,10.56,73288.5,-4.57,-7.23,-7.11,0,*5F
1518775634.0,46094,10.56,73288.5,-4.55,-7.43,-7.35,0,*5A
1518775635.22,46095,10.56,73290.8,-4.55,-7.23,-7.23,0,*5A
1518775636.46,46096,10.63,73288.3,-4.55,-7.31,-7.19,0,*53
1518775637.72,46097,10.56,73286.5,-4.55,-7.35,-7.31,0,*5C
1518775638.94,46098,10.63,73288.0,-4.55,-7.23,-7.23,0,*57
1518775640.21,46099,10.63,73290.8,-4.51,-7.27,-7.27,0,*52
1518775641.44,46100,10.63,73290.3,-4.51,-7.15,-7.05,0,*52
1518775642.68,46101,10.63,73290.8,-4.55,-7.31,-7.23,0,*55
1518775643.92,46102,10.63,73290.0,-4.51,-7.31,-7.19,0,*5B
1518775645.14,46103,10.56,73290.8,-4.51,-7.15,-7.15,0,*50
1518775646.41,46104,10.63,73290.0,-4.51,-7.39,-7.39,0,*57
1518775647.67,46105,10.63,73290.0,-4.55,-7.31,-7.31,0,*52
1518775648.93,46106,10.56,73284.5,-4.51,-7.27,-7.27,0,*55
1518775650.2,46107,10.63,73294.0,-4.51,-7.39,-7.43,0,*59
1518775651.44,46108,10.56,73288.3,-4.51,-7.57,-7.53,0,*5F
1518775652.69,46109,10.56,73290.0,-4.51,-7.53,-7.43,0,*5B
1518775653.93,46110,10.56,73288.5,-4.55,-7.23,-7.31,0,*55
1518775655.19,46111,10.56,73288.3,-4.51,-7.27,-7.31,0,*54
1518775656.46,46112,10.56,73284.5,-4.51,-7.27,-7.31,0,*57
1518775657.73,46113,10.56,73286.8,-4.51,-7.69,-7.65,0,*5D
1518775658.99,46114,10.56,73288.8,-4.51,-7.31,-7.27,0,*51
1518775660.19,46115,10.63,73288.3,-4.49,-7.19,-7.19,0,*5E
1518775661.45,46116,10.56,73284.5,-4.51,-7.27,-7.31,0,*53
1518775662.67,46117,10.63,73288.3,-4.51,-7.15,-7.19,0,*59
1518775663.9,46118,10.63,73290.3,-4.55,-7.19,-7.11,0,*56
1518775665.09,46119,10.56,73286.0,-4.49,-7.15,-7.15,0,*52
1518775666.31,46120,10.56,73290.0,-4.51,-7.19,-7.19,0,*51
1518775667.55,46121,10.63,73288.8,-4.49,-7.27,-7.27,0,*59
1518775668.8,46122,10.56,73286.5,-4.51,-7.27,-7.19,0,*5E
1518775670.04,46123,10.56,73286.8,-4.51,-7.53,-7.57,0,*56
1518775671.3,46124,10.56,73284.0,-4.47,-7.27,-7.35,0,*51
1518775672.54,46125,10.63,73288.0,-4.49,-7.39,-7.31,0,*55
1518775673.78,46126,10.56,73284.8,-4.49,-7.27,-7.27,0,*5E
1518775675.02,46127,10.56,73284.8,-4.49,-7.65,-7.57,0,*5E
1518775676.27,46128,10.56,73286.0,-4.49,-7.65,-7.57,0,*51
1518775677.51,46129,10.63,73288.0,-4.49,-7.43,-7.57,0,*54
1518775678.7,46130,10.63,73290.5,-4.49,-7.53,-7.53,0,*59
1518775679.93,46131,10.63,73288.8,-4.51,-7.39,-7.53,0,*5D
1518775681.11,46132,10.56,73284.0,-4.49,-7.53,-7.53,0,*5B
1518775682.38,46133,10.56,73284.5,-4.47,-7.35,-7.35,0,*54
1518775683.62,46134,10.56,73284.8,-4.49,-7.31,-7.31,0,*5D
1518775684.86,46135,10.56,73290.8,-4.49,-7.65,-7.69,0,*50
1518775686.11,46136,10.56,73288.5,-4.49,-7.57,-7.57,0,*5F
1518775687.36,46137,10.56,73288.8,-4.47,-7.39,-7.35,0,*5C
1518775688.61,46138,10.63,73290.5,-4.49,-7.65,-7.65,0,*51
1518775689.85,46139,10.56,73286.0,-4.49,-7.65,-7.65,0,*50
1518775691.1,46140,10.63,73288.5,-4.49,-7.57,-7.65,0,*5F
1518775692.35,46141,10.56,73288.0,-4.49,-7.43,-7.43,0,*5F
1518775693.59,46142,10.63,73290.0,-4.49,-7.57,-7.65,0,*5D
1518775694.78,46143,10.56,73290.5,-4.49,-7.49,-7.53,0,*56
1518775696.03,46144,10.63,73290.8,-4.49,-7.43,-7.43,0,*5A
1518775697.27,46145,10.63,73288.5,-4.49,-7.69,-7.77,0,*54
1518775698.51,46146,10.56,73288.0,-4.49,-7.57,-7.57,0,*58
1518775699.72,46147,10.56,73290.0,-4.47,-7.49,-7.49,0,*57
1518775700.96,46148,10.63,73288.0,-4.49,-7.69,-7.69,0,*56
1518775702.18,46149,10.63,73290.0,-4.49,-7.83,-7.99,0,*5C
1518775703.44,46150,10.56,73288.8,-4.47,-7.65,-7.73,0,*56
1518775704.69,46151,10.56,73288.5,-4.49,-7.57,-7.57,0,*5E
1518775705.94,46152,10.56,73288.0,-4.49,-7.57,-7.65,0,*5C
1518775707.18,46153,10.63,73292.0,-4.49,-7.43,-7.57,0,*59
1518775708.39,46154,10.56,73286.5,-4.49,-7.39,-7.53,0,*57
1518775709.63,46155,10.56,73290.8,-4.47,-7.87,-7.77,0,*5B
1518775710.87,46156,10.56,73284.8,-4.49,-7.65,-7.69,0,*55
1518775712.11,46157,10.56,73284.0,-4.49,-7.91,-8.07,0,*58